Погода в Реймсе

Франция     49°15′40″N   4°01′53″E
темп.,
°C
ветер,
м/с
пор.,
м/с
влажн.,
%
обл.,
%
осадки,
мм/ч
давл.,
гПа
погр.,
м
20 сентября, пн
пн2023:00+15з1183100 0.5 101511
02:00+14сз2287100 0.9 101638
05:00+13зсз2297100 0.3 101655
08:00+13сз229787 0.3 101765
11:00+16ссв238424 0.1 1018427
14:00+19с236753 1.6 1018866
17:00+20св3462100 2.6 10191046
20:00+15ссв398216 2.8 1021210
21 сентября, вт
вт2123:00+12с24875 0.0 102364
02:00+11ссз23870 0.0 102444
05:00+9ссз23851 0.0 102543
08:00+8с388759 0.0 1027195
11:00+14ссв46655 0.0 1028479
14:00+17ссв34546 0.0 10281003
17:00+18ссв345211 0.0 10271323
20:00+13ссв38745 0.0 1028176
22 сентября, ср
ср2223:00+11ссв23785 0.0 102944
02:00+10св118290 0.0 102910
05:00+9всв118318 0.0 102810
08:00+9св117994 0.0 102911
11:00+14всв236183 0.0 1029390
14:00+18св234982 0.0 1027785
17:00+19св234867 0.0 1025849
20:00+14св1165100 0.0 102411
23 сентября, чт
чт2323:00+13с11705 0.0 102510
02:00+11ссв007743 0.0 102310
05:00+10сз00835 0.0 102210
08:00+10юз11845 0.0 102210
11:00+16зюз22625 0.0 1021343
14:00+20зсз344569 0.0 10201022
17:00+21зсз3442100 0.0 10181050
20:00+15з116120 0.0 101811
24 сентября, пт
пт2423:00+13зсз227750 0.0 101910
02:00+12з117979 0.0 101810
05:00+11зюз228314 0.0 101716
08:00+11юз22904 0.0 101725
11:00+17зюз457455 0.0 1017515
14:00+20з566065 0.0 10161168
17:00+19з477084 0.0 1015645
20:00+15зюз22840 0.0 101521